This is the latest recevied weather packets stored in our database for station/object WB5HZM-3. If no packets are shown the sender has not sent any weather packets the latest 10 day(s).
| Time | Temp. | Humidity | Pressure | Rain* | Wind** | Luminosity | Snow |
|---|---|---|---|---|---|---|---|
| 1777423402 | 27.78° C | 77% | 1012 hPa | 0 mm | - | - | - |
| 1777422798 | 28.33° C | 76% | 1011.6 hPa | 0 mm | - | - | - |
| 1777422196 | 28.33° C | 75% | 1011.4 hPa | 0 mm | - | - | - |
| 1777421612 | 28.89° C | 74% | 1011.5 hPa | 0 mm | - | - | - |
| 1777421008 | 29.44° C | 73% | 1011.7 hPa | 0 mm | - | - | - |
| 1777420403 | 29.44° C | 72% | 1011.8 hPa | 0 mm | - | - | - |
| 1777419802 | 30° C | 70% | 1011.7 hPa | 0 mm | - | - | - |
| 1777419198 | 30° C | 67% | 1011.5 hPa | 0 mm | - | - | - |
| 1777418594 | 30° C | 69% | 1011.4 hPa | 0 mm | - | - | - |
| 1777417993 | 30° C | 70% | 1011.7 hPa | 0 mm | - | - | - |
| 1777417409 | 30° C | 71% | 1011.8 hPa | 0 mm | - | - | - |
| 1777416804 | 30° C | 70% | 1011.9 hPa | 0 mm | - | - | - |
| 1777416204 | 30.56° C | 70% | 1012 hPa | 0 mm | - | - | - |
| 1777415600 | 30.56° C | 69% | 1011.8 hPa | 0 mm | - | - | - |
| 1777414996 | 30.56° C | 69% | 1011.7 hPa | 0 mm | - | - | - |
| 1777414392 | 30.56° C | 68% | 1011.8 hPa | 0 mm | - | - | - |
| 1777413811 | 30.56° C | 69% | 1011.8 hPa | 0 mm | - | - | - |
| 1777413208 | 31.11° C | 69% | 1011.7 hPa | 0 mm | - | - | - |
| 1777412603 | 31.11° C | 69% | 1011.7 hPa | 0 mm | - | - | - |
| 1777412002 | 30.56° C | 69% | 1011.9 hPa | 0 mm | - | - | - |
| 1777411398 | 30.56° C | 68% | 1012.1 hPa | 0 mm | - | - | - |
| 1777410794 | 31.11° C | 67% | 1012.2 hPa | 0 mm | - | - | - |
| 1777410193 | 31.11° C | 67% | 1012.2 hPa | 0 mm | - | - | - |
| 1777409609 | 31.11° C | 67% | 1012.3 hPa | 0 mm | - | - | - |
| 1777409004 | 31.11° C | 67% | 1012.4 hPa | 0 mm | - | - | - |
* Rain latest hour (hover to see other rain measurements)
** Current wind speed in m/s (hover to see current wind gust speed)